Weather History for K3T5 - July, 2013

Change the Weather History Date:

Friday, July 19, 2013

  Actual Average (KAUS) Record (KAUS)
Temperature  
Mean Temperature 84 °F 84 °F  
Max Temperature 97 °F 96 °F 106 °F (1951)
Min Temperature 73 °F 72 °F 64 °F (2004)
Degree Days  
Heating Degree Days 0 0  
Month to date heating degree days 0  
Since 1 June heating degree days 0  
Since 1 July heating degree days 0  
Cooling Degree Days 20 19  
Month to date cooling degree days 345  
Year to date cooling degree days 1333  
Since 1 June cooling degree days 826  
Growing Degree Days 34 (Base 50)    
Moisture  
Dew Point 72 °F    
Average Humidity 74    
Maximum Humidity 93    
Minimum Humidity 37    
Precipitation  
Precipitation 0.01 in 0.06 in 2.46 in (1979)
Month to date precipitation 1.76  
Year to date precipitation 20.44  
Snow  
Snow 0.00 in - - ()
Month to date snowfall  
Since 1 June snowfall  
Since 1 July snowfall  
Snow Depth -    
Sea Level Pressure  
Sea Level Pressure 30.00 in    
Wind  
Wind Speed 2 mph (ESE)    
Max Wind Speed 14 mph    
Max Gust Speed 22 mph    
Visibility 10 miles    
Events Thunderstorm    
T = Trace of Precipitation, MM = Missing Value Source: NWS Daily Summary

Daily Weather History Graph

Daily Weather History Graph

Search for Another Location

Airport or City:

Trip Planner

Search our weather history database for the weather conditions in past years. The results will help you decide how hot, cold, wet, or windy it might be!

Date:

Astronomy

Jul. 19, 2013 Rise Set
Actual Time 6:39 AM CDT 8:28 PM CDT
Civil Twilight 6:12 AM CDT 8:55 PM CDT
Nautical Twilight 5:40 AM CDT 9:27 PM CDT
Astronomical Twilight 5:06 AM CDT 10:00 PM CDT
Moon 5:32 PM CDT (7/19) 3:20 AM CDT (7/19)
Length of Visible Light 14h 42m
Length of Day
13h 48m
Waxing Gibbous, 87% of the Moon is Illuminated
Jul 19
Waxing Gibbous
Jul 22
Full
Jul 29
Last Quarter
Aug 6
New
Aug 14
First Quarter

Hourly Weather History & Observations

Time (CDT) Temp. Heat Index Dew Point Humidity Pressure Visibility Wind Dir Wind Speed Gust Speed Precip Events Conditions
12:15 AM 78.1 °F - 74.5 °F 89% 30.04 in 10.0 mi Calm Calm - N/A   Clear
12:35 AM 77.9 °F - 74.5 °F 89% 30.04 in 10.0 mi Calm Calm - N/A   Clear
12:55 AM 77.5 °F - 74.5 °F 90% 30.04 in 10.0 mi Calm Calm - N/A   Clear
1:15 AM 77.4 °F - 74.3 °F 90% 30.04 in 10.0 mi Calm Calm - N/A   Clear
1:35 AM 76.8 °F - 73.8 °F 90% 30.04 in 10.0 mi Calm Calm - N/A   Clear
1:55 AM 76.3 °F - 73.8 °F 92% 30.04 in 10.0 mi Calm Calm - N/A   Clear
2:15 AM 76.3 °F - 73.6 °F 91% 30.04 in 10.0 mi Calm Calm - N/A   Clear
2:35 AM 76.3 °F - 73.6 °F 91% 30.04 in 10.0 mi Calm Calm - N/A   Clear
2:55 AM 76.3 °F - 73.6 °F 91% 30.04 in 10.0 mi Calm Calm - N/A   Clear
3:15 AM 76.3 °F - 73.6 °F 91% 30.04 in 10.0 mi SSW 3.5 mph - N/A   Clear
3:35 AM 75.7 °F - 73.2 °F 92% 30.03 in 10.0 mi Calm Calm - N/A   Clear
3:55 AM 75.7 °F - 73.4 °F 92% 30.03 in 10.0 mi Calm Calm - N/A   Clear
4:15 AM 75.2 °F - 72.9 °F 92% 30.02 in 10.0 mi Calm Calm - N/A   Clear
4:35 AM 74.8 °F - 72.5 °F 92% 30.02 in 10.0 mi Calm Calm - N/A   Clear
4:55 AM 74.8 °F - 72.5 °F 92% 30.03 in 10.0 mi Calm Calm - N/A   Clear
5:15 AM 74.8 °F - 72.5 °F 92% 30.02 in 10.0 mi Calm Calm - N/A   Clear
5:35 AM 74.7 °F - 72.5 °F 93% 30.02 in 10.0 mi Calm Calm - N/A   Clear
5:55 AM 74.3 °F - 71.8 °F 92% 30.02 in 10.0 mi Calm Calm - N/A   Clear
6:15 AM 73.9 °F - 71.6 °F 92% 30.03 in 10.0 mi Calm Calm - N/A   Clear
6:35 AM 73.8 °F - 71.4 °F 92% 30.03 in 10.0 mi Calm Calm - N/A   Clear
6:55 AM 74.1 °F - 71.6 °F 92% 30.04 in 10.0 mi Calm Calm - N/A   Clear
7:15 AM 74.3 °F - 72.0 °F 92% 30.04 in 10.0 mi Calm Calm - N/A   Clear
7:35 AM 75.0 °F - 72.5 °F 92% 30.04 in 7.0 mi Calm Calm - N/A   Clear
7:55 AM 76.3 °F - 73.6 °F 91% 30.05 in 10.0 mi Calm Calm - N/A   Clear
8:15 AM 77.4 °F - 74.3 °F 90% 30.05 in 7.0 mi Calm Calm - N/A   Clear
8:35 AM 78.8 °F - 75.2 °F 89% 30.06 in 7.0 mi Calm Calm - N/A   Clear
8:55 AM 79.0 °F - 74.8 °F 87% 30.06 in 5.0 mi Calm Calm - N/A   Clear
9:15 AM 80.2 °F 85.5 °F 75.2 °F 85% 30.06 in 7.0 mi Calm Calm - N/A   Clear
9:35 AM 81.7 °F 88.3 °F 75.4 °F 81% 30.06 in 7.0 mi Calm Calm - N/A   Clear
9:55 AM 83.5 °F 89.7 °F 73.2 °F 71% 30.06 in 10.0 mi Calm Calm - N/A   Scattered Clouds
10:15 AM 84.2 °F 89.6 °F 71.8 °F 66% 30.05 in 10.0 mi Calm Calm - N/A   Scattered Clouds
10:35 AM 84.9 °F 90.7 °F 71.8 °F 65% 30.05 in 10.0 mi Calm Calm - N/A   Scattered Clouds
10:55 AM 86.7 °F 91.4 °F 69.8 °F 57% 30.05 in 10.0 mi SSE 5.8 mph - N/A   Scattered Clouds
11:15 AM 86.9 °F 90.3 °F 68.0 °F 53% 30.04 in 10.0 mi Calm Calm - N/A   Scattered Clouds
11:35 AM 88.3 °F 92.8 °F 69.1 °F 53% 30.04 in 10.0 mi WSW 3.5 mph - N/A   Clear
11:55 AM 89.2 °F 93.6 °F 68.7 °F 51% 30.04 in 10.0 mi ESE 5.8 mph - N/A   Scattered Clouds
12:15 PM 89.4 °F 93.5 °F 68.5 °F 50% 30.03 in 10.0 mi SSW 3.5 mph - N/A   Mostly Cloudy
12:35 PM 89.4 °F 93.5 °F 68.4 °F 50% 30.02 in 10.0 mi WSW 4.6 mph - N/A   Scattered Clouds
12:55 PM 90.9 °F 94.4 °F 67.5 °F 46% 30.01 in 10.0 mi West 4.6 mph - N/A   Scattered Clouds
1:15 PM 90.5 °F 94.2 °F 67.6 °F 47% 30.00 in 10.0 mi Calm Calm - N/A   Clear
1:35 PM 92.7 °F 96.2 °F 66.9 °F 43% 30.00 in 10.0 mi ENE 4.6 mph - N/A   Clear
1:55 PM 91.6 °F 94.8 °F 66.6 °F 44% 29.99 in 10.0 mi Calm Calm - N/A   Clear
2:15 PM 92.8 °F 96.6 °F 67.3 °F 43% 29.98 in 3.0 mi Calm Calm - N/A   Haze
2:35 PM 94.1 °F 98.4 °F 67.5 °F 42% 29.98 in 10.0 mi East 5.8 mph - N/A   Clear
2:55 PM 94.3 °F 96.7 °F 65.1 °F 38% 29.97 in 10.0 mi Calm Calm - N/A Thunderstorm Clear
3:15 PM 94.1 °F 96.9 °F 66.0 °F 39% 29.96 in 10.0 mi Calm Calm - N/A   Clear
3:35 PM 95.2 °F 98.3 °F 65.8 °F 38% 29.95 in 10.0 mi Calm Calm - N/A   Clear
3:55 PM 96.1 °F 99.9 °F 66.6 °F 38% 29.94 in 10.0 mi ESE 3.5 mph - N/A   Clear
4:15 PM 96.6 °F 100.3 °F 66.4 °F 37% 29.93 in 10.0 mi Calm Calm - N/A   Clear
4:35 PM 95.5 °F 98.4 °F 65.5 °F 37% 29.92 in 10.0 mi Calm Calm - N/A   Clear
4:55 PM 91.4 °F 97.8 °F 70.7 °F 51% 29.93 in 10.0 mi East 13.8 mph 19.6 mph N/A Thunderstorm Scattered Clouds
5:15 PM 90.0 °F 96.9 °F 71.6 °F 55% 29.93 in 10.0 mi ENE 12.7 mph 17.3 mph N/A   Scattered Clouds
5:35 PM 88.2 °F 96.0 °F 73.4 °F 61% 29.92 in 10.0 mi ENE 9.2 mph - N/A   Clear
5:55 PM 87.4 °F 96.7 °F 75.0 °F 66% 29.92 in 10.0 mi East 10.4 mph - N/A   Clear
6:15 PM 84.4 °F 92.4 °F 75.0 °F 73% 29.94 in 10.0 mi East 13.8 mph 21.9 mph N/A Thunderstorm Thunderstorm
6:35 PM 84.7 °F 93.2 °F 75.4 °F 73% 29.93 in 10.0 mi East 11.5 mph 19.6 mph N/A   Clear
6:55 PM 84.0 °F 92.2 °F 75.4 °F 75% 29.93 in 10.0 mi ESE 10.4 mph 19.6 mph N/A   Clear
7:15 PM 83.8 °F 91.4 °F 74.7 °F 74% 29.92 in 10.0 mi ESE 9.2 mph 16.1 mph N/A   Clear
7:35 PM 83.8 °F 90.8 °F 73.8 °F 72% 29.92 in 10.0 mi East 9.2 mph - N/A   Clear
7:55 PM 82.0 °F 87.7 °F 73.2 °F 75% 29.93 in 10.0 mi ESE 9.2 mph - N/A   Clear
8:15 PM 81.5 °F 86.9 °F 73.6 °F 77% 29.93 in 10.0 mi ESE 6.9 mph - N/A   Clear
8:35 PM 80.6 °F 85.5 °F 73.8 °F 80% 29.95 in 10.0 mi ESE 6.9 mph - N/A   Clear
8:55 PM 80.1 °F 84.6 °F 74.3 °F 82% 29.95 in 10.0 mi SE 4.6 mph - N/A   Scattered Clouds
9:15 PM 79.7 °F - 74.3 °F 83% 29.96 in 10.0 mi ESE 3.5 mph - N/A   Scattered Clouds
9:35 PM 79.3 °F - 74.3 °F 84% 29.96 in 10.0 mi SE 4.6 mph - N/A   Clear
9:55 PM 79.2 °F - 74.3 °F 85% 29.96 in 10.0 mi ESE 4.6 mph - N/A   Clear
10:15 PM 79.0 °F - 74.3 °F 85% 29.97 in 10.0 mi ESE 4.6 mph - N/A   Clear
10:35 PM 78.8 °F - 74.5 °F 87% 29.98 in 10.0 mi ESE 4.6 mph - N/A   Clear
10:55 PM 78.8 °F - 74.5 °F 87% 29.98 in 10.0 mi SE 3.5 mph - N/A   Clear
11:15 PM 79.0 °F - 74.3 °F 85% 29.98 in 10.0 mi SSE 4.6 mph - N/A   Clear
11:35 PM 78.8 °F - 74.3 °F 86% 29.98 in 10.0 mi SSE 3.5 mph - N/A   Clear
11:55 PM 78.8 °F - 74.5 °F 87% 29.98 in 10.0 mi South 3.5 mph - N/A   Clear